Location: Newark
(60.7728°N, 46.2261°E)
Time: 16:15:18
(UTC+00:00)

ISS - Pass Details

Date: 27 September 2019
Orbit: 411 x 421 km, 51.6° (Epoch: 21 October)

Event Time Altitude Azimuth Distance (km) Brightness Sun altitude
Rises 15:24:25 0° 225° (SW) 2,343 0.6 -6.1°
Reaches altitude 10° 15:27:10 10° 200° (SSW) 1,482 -0.8 -6.5°
Maximum altitude 15:29:05 15° 165° (SSE) 1,236 -1.6 -6.7°
Drops below altitude 10° 15:31:00 10° 130° (SE) 1,484 -1.5 -6.9°
Enters shadow 15:31:38 - 121° (ESE) 1,650 -1.3 -7.0°
